CW1675 Weather Reports


Display with metric or nautical units.
time (UTC)temp
F
wind
direction
speed
MPH
gust
MPH
rain 1hr
in
rain 24hr
in
rain mn
in
humidity
%
barometer
mb
20260504190836 56 177 0.0 0.0 0.00 0.15 0.15 91 1013.4
20260504190335 56 177 0.0 2.0 0.00 0.15 0.15 91 1013.4
20260504184835 57 151 2.0 5.0 0.00 0.15 0.15 90 1013.3
20260504184336 57 151 2.0 5.0 0.00 0.15 0.15 90 1013.3
20260504183835 57 165 1.0 3.0 0.00 0.15 0.15 90 1013.4
20260504180335 57 213 0.0 3.0 0.00 0.15 0.15 91 1013.4
20260504175335 58 214 1.0 1.0 0.00 0.15 0.15 91 1013.4
20260504174335 58 222 1.0 5.0 0.00 0.15 0.15 90 1013.4
20260504173835 58 262 1.0 3.0 0.00 0.15 0.15 90 1013.6
20260504173335 58 178 1.0 7.0 0.00 0.15 0.15 90 1013.6
20260504172837 58 209 1.0 2.0 0.00 0.15 0.15 90 1013.6
20260504172335 58 209 0.0 7.0 0.00 0.15 0.15 90 1013.6
20260504171335 58 168 0.0 1.0 0.00 0.15 0.15 91 1013.6
20260504170835 58 168 2.0 3.0 0.00 0.15 0.15 90 1013.7
20260504170335 58 190 2.0 0.0 0.00 0.15 0.15 90 1013.7
20260504160335 59 175 0.0 7.0 0.03 0.15 0.15 90 1013.8
20260504110335 63 317 3.0 6.0 0.00 0.01 0.00 76 1014.4
20260504080835 62 211 3.0 7.0 0.00 0.02 0.00 74 1014.3
20260504080335 62 241 3.0 8.0 0.00 0.02 0.00 75 1014.3
20260504070334 60 183 3.0 5.0 0.00 0.02 0.00 80 1014.2
20260504045837 50 316 0.0 0.0 0.00 0.02 0.00 92 1013.5
20260504043835 51 314 2.0 0.0 0.00 0.02 0.00 91 1013.3
20260504043335 51 314 2.0 1.0 0.00 0.02 0.00 91 1013.3
20260504042836 51 314 1.0 5.0 0.00 0.02 0.00 90 1013.3
20260504042334 51 326 0.0 5.0 0.00 0.02 0.00 88 1013.2
20260504040835 52 330 0.0 2.0 0.00 0.02 0.00 86 1013.1
20260504035335 54 330 0.0 0.0 0.00 0.02 0.00 86 1013.3
20260504034335 54 330 2.0 0.0 0.00 0.02 0.00 85 1013.3
20260504033835 55 330 2.0 5.0 0.00 0.02 0.00 84 1013.2
20260504033335 55 199 2.0 7.0 0.00 0.02 0.00 84 1013.2
20260504032335 55 167 3.0 5.0 0.00 0.02 0.00 84 1013.2
20260504031835 55 165 4.0 6.0 0.00 0.02 0.00 84 1013.2
20260504031335 55 165 5.0 7.0 0.00 0.02 0.00 84 1013.2
20260504023835 56 169 3.0 5.0 0.00 0.02 0.00 83 1013.0
20260504023334 56 150 3.0 6.0 0.00 0.02 0.00 84 1013.0
20260504022334 56 174 5.0 9.0 0.00 0.02 0.00 84 1013.3
20260504021335 56 170 5.0 10.0 0.00 0.02 0.00 84 1013.3
20260504020334 56 162 5.0 8.0 0.00 0.02 0.00 85 1013.3
20260504015836 56 167 5.0 10.0 0.00 0.02 0.00 84 1013.3
20260504014335 56 164 5.0 9.0 0.00 0.02 0.00 85 1013.3
20260504013834 56 171 3.0 8.0 0.00 0.02 0.00 85 1013.2
20260504012837 56 167 3.0 7.0 0.00 0.02 0.00 85 1013.2
20260504012334 56 178 3.0 7.0 0.00 0.02 0.00 85 1013.3
20260504010835 56 165 3.0 6.0 0.00 0.02 0.00 86 1013.2
20260504010335 56 168 3.0 7.0 0.00 0.02 0.00 86 1013.2
20260504005334 56 159 5.0 7.0 0.00 0.02 0.00 87 1013.3
20260504004835 56 170 5.0 7.0 0.00 0.02 0.00 87 1013.3
20260504003851 55 171 3.0 7.0 0.00 0.02 0.00 88 1013.3
20260504003334 55 169 2.0 8.0 0.00 0.02 0.00 89 1013.3
20260504001835 54 188 2.0 2.0 0.00 0.02 0.00 88 1013.3
20260504001335 54 188 2.0 5.0 0.00 0.02 0.00 88 1013.3
20260504000835 55 188 2.0 3.0 0.00 0.02 0.00 88 1013.3
20260503235335 54 175 2.0 6.0 0.00 0.02 0.00 94 1013.3
20260503234835 53 164 1.0 5.0 0.00 0.02 0.00 95 1013.3
20260503234334 51 177 0.0 2.0 0.00 0.02 0.00 93 1013.3
20260503232837 51 180 0.0 0.0 0.00 0.02 0.00 90 1013.4
20260503231835 52 180 0.0 0.0 0.00 0.02 0.00 90 1013.4
20260503230335 53 180 0.0 0.0 0.00 0.02 0.00 89 1013.6
20260503225335 53 180 0.0 2.0 0.00 0.02 0.00 87 1013.6
20260503222836 56 180 2.0 0.0 0.00 0.02 0.00 87 1013.5
20260503222335 56 180 2.0 5.0 0.00 0.02 0.00 87 1013.4
20260503220335 56 176 3.0 6.0 0.00 0.02 0.00 86 1013.4
20260503215838 56 161 4.0 5.0 0.00 0.02 0.00 86 1013.4
20260503215336 56 180 5.0 9.0 0.00 0.02 0.02 86 1013.5
20260503214838 57 174 5.0 9.0 0.00 0.02 0.02 85 1013.5
20260503213835 57 168 5.0 9.0 0.00 0.02 0.02 85 1013.7
20260503212835 57 145 3.0 10.0 0.00 0.02 0.02 86 1013.7
20260503210834 57 164 2.0 6.0 0.00 0.02 0.02 85 1013.6
20260503210334 57 166 2.0 5.0 0.00 0.02 0.02 86 1013.6
20260503205334 57 172 3.0 5.0 0.00 0.02 0.02 85 1013.5
20260503204334 57 174 2.0 7.0 0.00 0.02 0.02 85 1013.5
20260503201335 58 181 5.0 8.0 0.00 0.02 0.02 84 1013.5
20260503195837 58 168 4.0 8.0 0.00 0.02 0.02 84 1013.5
20260503194834 59 177 5.0 2.0 0.00 0.02 0.02 83 1013.4
20260503193834 59 173 5.0 8.0 0.00 0.02 0.02 83 1013.3
20260503193334 59 166 5.0 9.0 0.00 0.02 0.02 83 1013.3
20260503192836 59 163 6.0 10.0 0.00 0.02 0.02 83 1013.3
20260503192335 59 176 6.0 9.0 0.00 0.02 0.02 83 1013.4
20260503191834 59 177 5.0 12.0 0.00 0.02 0.02 83 1013.4
20260503191334 59 192 5.0 12.0 0.00 0.02 0.02 83 1013.4